[[{"header":{"parameterUnit":"m.s-1","parameterCategory":1,"la1":30.2991,"la2":30.254,"lo1":-89.0895,"lo2":-89.0444,"dy":0.0017,"dx":0.0017,"nx":28,"ny":28,"refTime":"2025-02-24T03:00:00:Z","depth":0,"parameterNumber":2,"parameterNumberName":"U-component_of_WINDS"},"data":[0,0,0,0,0,0,0,0,0,0,0,0,0,0,0,0,0,0,0,0,0,0,0,0,0,0,0,0,0,0,0,0,0,0,0,0,0,0,0,0,0,0,0,0,0,0,0,0,0,0,0,0,0,0,0,0,0,0,2.3569,2.357,0,2.3717,2.3719,2.3721,2.3706,2.3704,2.3701,2.3699,2.3857,2.3863,2.3869,0,0,0,0,0,0,0,0,0,0,0,0,0,2.3278,2.3284,2.3569,2.3571,2.3572,2.3717,2.3719,2.3721,2.3706,2.3704,2.3701,2.3698,2.3854,2.3862,2.387,0,0,0,0,0,0,0,0,0,0,0,0,0,2.3413,2.3285,2.3568,2.3582,2.3585,2.3717,2.3719,2.3722,2.3707,2.3704,2.37,2.3697,2.3852,2.3861,2.3871,2.3999,0,0,2.39,2.3904,0,0,0,0,0,0,0,0,2.3406,2.3424,2.3579,2.3582,2.3585,2.3689,2.3674,2.3815,2.3708,2.3661,2.3699,2.3695,2.3804,2.3817,2.3853,2.4006,2.4013,2.3901,2.3906,2.391,2.3913,0,0,0,0,0,0,0,2.3396,2.3418,2.3628,2.3581,2.3585,2.3583,2.3599,2.3701,2.3751,2.3665,2.3664,2.3682,2.3805,2.3844,2.3857,2.4015,2.39,2.3909,2.3915,2.3918,2.4283,2.4286,0,0,0,0,0,0,2.3383,2.341,2.3623,2.3632,2.3485,2.3591,2.3608,2.366,2.3749,2.3759,2.3684,2.368,2.3829,2.3845,2.3862,2.4018,2.391,2.3919,2.3925,2.4279,2.4284,2.4288,0,0,0,0,0,0,2.3377,2.3402,2.3617,2.3521,2.3548,2.36,2.3658,2.3664,2.3703,2.3764,2.3773,2.3714,2.3827,2.3849,2.3965,2.4024,2.3924,2.3932,2.4274,2.428,2.4286,2.4332,0,0,0,0,0,0,2.3368,2.34,2.3448,2.3522,2.3553,2.3716,2.3661,2.367,2.3719,2.3715,2.3794,2.3804,2.3826,2.3951,2.3974,2.4035,2.394,2.4269,2.4277,2.4284,2.4326,2.4339,2.435,0,0,0,0,0,2.3358,2.3456,2.345,2.3476,2.3614,2.3719,2.3737,2.3758,2.3723,2.3773,2.3812,2.3802,2.4013,2.3963,2.3989,2.4054,2.4265,2.4275,2.4283,2.432,2.4336,2.435,0,0,0,0,0,0,2.3389,2.3466,2.3461,2.3585,2.3645,2.3716,2.3779,2.3775,2.3848,2.3841,2.3867,2.3885,2.4002,2.404,2.3982,2.4183,2.4135,2.415,2.4154,2.417,2.4182,2.4171,2.3948,0,0,0,0,0,2.341,2.3487,2.3551,2.3655,2.3685,2.3727,2.3774,2.3785,2.3849,2.3875,2.3923,2.3988,2.4069,2.4121,2.4199,2.4331,2.4349,2.4389,2.4401,2.4411,2.4423,2.4496,2.4515,2.4317,2.4317,2.4317,0,0,2.3455,2.3506,2.3554,2.3662,2.3711,2.3792,2.3749,2.3836,2.3897,2.3889,2.4001,2.4039,2.4113,2.4237,2.4294,2.4272,2.4482,2.4422,2.443,2.4437,2.4507,2.4526,2.4543,2.4323,2.4322,2.4321,0,0,2.3578,2.3624,2.3716,2.3765,2.3838,2.3865,2.3887,2.3959,2.3983,2.4096,2.4091,2.4165,2.4304,2.4357,2.4402,2.4545,2.4539,2.457,2.4635,2.4706,2.4721,2.4735,2.4787,2.4805,2.4582,2.4583,2.4583,0,2.3624,2.3744,2.3764,2.3852,2.39,2.3895,2.3989,2.4037,2.4132,2.4166,2.414,2.4314,2.4363,2.45,2.4535,2.4572,2.4598,2.4561,2.4717,2.4731,2.4745,2.4794,2.4813,2.4586,2.4585,2.4585,2.4585,0,2.3799,2.3882,2.3948,2.4038,2.4094,2.4185,2.422,2.4274,2.4281,2.4312,2.4427,2.4486,2.4576,2.4609,2.4618,2.4748,2.4732,2.4711,2.4663,2.4767,2.4813,2.4832,2.4591,2.4589,2.4588,2.4588,0,0,2.3944,2.4044,2.4068,2.4109,2.419,2.4256,2.4347,2.4433,2.448,2.4546,2.4624,2.4742,2.4723,2.4774,2.4788,2.4851,2.4961,2.4822,2.4825,2.4846,2.5109,2.5124,2.5145,2.4957,2.4961,2.4964,2.5103,0,2.4075,2.4234,2.4255,2.4397,2.4475,2.4472,2.4552,2.4611,2.4642,2.4714,2.475,2.4833,2.4802,2.4832,2.4894,2.4934,2.5014,2.4925,2.5031,2.5034,2.5012,2.5169,2.5185,2.5313,2.5121,2.5124,2.5126,0,2.4248,2.4318,2.4467,2.4537,2.4571,2.4642,2.4723,2.4791,2.4859,2.4878,2.4935,2.4941,2.5037,2.4986,2.5119,2.5058,2.5103,2.5129,2.5135,2.5145,2.5086,2.5184,2.5355,2.5374,2.5155,2.5153,2.5151,0,2.4339,2.4471,2.4577,2.4612,2.4697,2.4747,2.4785,2.4849,2.4899,2.4971,2.5004,2.5087,2.5132,2.5197,2.5226,2.5186,2.5358,2.5309,2.5377,2.5376,2.5413,2.541,2.5593,2.5443,2.5442,2.5442,2.5441,0,2.4482,2.4574,2.4619,2.4684,2.4787,2.4811,2.4913,2.4949,2.5006,2.508,2.5083,2.5153,2.5187,2.5262,2.5286,2.5393,2.5414,2.5432,2.5438,2.5432,2.5429,2.5461,2.5453,2.5447,2.5446,2.5445,2.5444,0,2.4601,2.4635,2.475,2.4821,2.4841,2.4914,2.4975,2.5039,2.507,2.5163,2.5187,2.5236,2.5324,2.536,2.5469,2.5485,2.5608,2.5607,2.5585,2.5586,2.5652,2.5645,2.5862,2.5891,2.5722,2.5723,2.5725,0,2.469,2.476,2.4838,2.4887,2.4926,2.5005,2.5056,2.5083,2.5137,2.5219,2.5274,2.5362,2.5434,2.5576,2.5622,2.5706,2.5706,2.5776,2.5719,2.5711,2.5707,2.5702,2.571,2.5787,2.5789,2.579,2.5791,0,2.4844,2.4857,2.4931,2.501,2.5071,2.5136,2.5198,2.5239,2.5275,2.5336,2.5426,2.5481,2.5592,2.568,2.5766,2.5807,2.5806,2.5809,2.5829,2.5824,2.5808,2.5817,2.5613,2.5804,2.5802,2.5801,2.5801,2.58,2.4951,2.5013,2.5077,2.5159,2.5209,2.5268,2.5331,2.537,2.5445,2.5536,2.5548,2.5644,2.5711,2.5826,2.5871,2.5948,2.593,2.5959,2.5966,2.5973,2.5977,2.5796,2.5964,2.5963,2.5963,2.5963,2.5963,0,2.5105,2.5146,2.5221,2.5308,2.5373,2.5365,2.5434,2.5489,2.5573,2.5635,2.5705,2.5809,2.5894,2.5947,2.6034,2.6085,2.6087,2.6107,2.6103,2.6112,2.5989,2.5962,2.6104,2.6104,2.6104,2.6104,2.6104,2.6104,2.5192,2.5297,2.5318,2.5449,2.549,2.5583,2.5623,2.5678,2.5727,2.5842,2.5912,2.5946,2.6005,2.6096,2.6174,2.6188,2.6219,2.624,2.6253,2.6136,2.6121,2.6107,2.6083,2.6247,2.6247,2.637,2.6371,2.6372]},{"header":{"parameterUnit":"m.s-1","parameterCategory":1,"la1":30.2991,"la2":30.254,"lo1":-89.0895,"lo2":-89.0444,"dy":0.0017,"dx":0.0017,"nx":28,"ny":28,"refTime":"2025-02-24T03:00:00:Z","depth":0,"parameterNumber":3,"parameterNumberName":"V-component_of_WINDS"},"data":[0,0,0,0,0,0,0,0,0,0,0,0,0,0,0,0,0,0,0,0,0,0,0,0,0,0,0,0,0,0,0,0,0,0,0,0,0,0,0,0,0,0,0,0,0,0,0,0,0,0,0,0,0,0,0,0,0,0,2.1178,2.1178,0,2.1234,2.1235,2.1236,2.1228,2.1227,2.1226,2.1225,2.128,2.1283,2.1285,0,0,0,0,0,0,0,0,0,0,0,0,0,2.1058,2.106,2.1178,2.1178,2.1179,2.1234,2.1235,2.1236,2.1228,2.1227,2.1226,2.1225,2.128,2.1282,2.1285,0,0,0,0,0,0,0,0,0,0,0,0,0,2.1112,2.1061,2.1178,2.1182,2.1183,2.1234,2.1235,2.1236,2.1228,2.1227,2.1225,2.1224,2.1279,2.1282,2.1286,2.1335,0,0,2.1296,2.1298,0,0,0,0,0,0,0,0,2.1109,2.1116,2.1181,2.1182,2.1183,2.1223,2.1213,2.1269,2.1229,2.1211,2.1225,2.1223,2.1262,2.1267,2.1281,2.1338,2.134,2.1297,2.1299,2.13,2.1301,0,0,0,0,0,0,0,2.1105,2.1114,2.12,2.1181,2.1183,2.1179,2.1186,2.1224,2.1244,2.1212,2.1212,2.1219,2.1262,2.1277,2.1282,2.1341,2.1297,2.13,2.1302,2.1303,2.1439,2.144,0,0,0,0,0,0,2.1101,2.1111,2.1198,2.1202,2.1142,2.1183,2.119,2.1211,2.1243,2.1247,2.122,2.1218,2.1272,2.1278,2.1284,2.1342,2.13,2.1304,2.1306,2.1437,2.1439,2.1441,0,0,0,0,0,0,2.1098,2.1108,2.1196,2.1156,2.1167,2.1186,2.1211,2.1213,2.1228,2.1249,2.1252,2.1232,2.1271,2.1279,2.1322,2.1344,2.1305,2.1308,2.1436,2.1438,2.144,2.146,0,0,0,0,0,0,2.1095,2.1108,2.1128,2.1157,2.1169,2.1235,2.1212,2.1215,2.1234,2.1233,2.1261,2.1264,2.1271,2.1317,2.1326,2.1348,2.1311,2.1434,2.1437,2.1439,2.1458,2.1463,2.1467,0,0,0,0,0,2.109,2.1132,2.1129,2.114,2.1195,2.1236,2.1243,2.1251,2.1236,2.1256,2.1269,2.1263,2.134,2.1321,2.1331,2.1355,2.1432,2.1436,2.1439,2.1455,2.1462,2.1467,0,0,0,0,0,0,2.1105,2.1136,2.1133,2.1185,2.1208,2.1235,2.126,2.1257,2.1284,2.1282,2.1288,2.1295,2.1338,2.1351,2.1329,2.1403,2.1384,2.1389,2.1393,2.1399,2.1404,2.1399,2.1314,0,0,0,0,0,2.1114,2.1146,2.1171,2.1214,2.1226,2.1241,2.1259,2.1263,2.1286,2.1296,2.1312,2.1334,2.1363,2.1382,2.141,2.1459,2.1464,2.148,2.1485,2.1489,2.1493,2.1517,2.1524,2.1452,2.1452,2.1452,0,0,2.1134,2.1155,2.1174,2.1218,2.1236,2.1267,2.1249,2.1284,2.1306,2.1301,2.1342,2.1355,2.138,2.1425,2.1447,2.1438,2.1514,2.1493,2.1496,2.1498,2.1521,2.1528,2.1534,2.1454,2.1454,2.1453,0,0,2.1185,2.1205,2.1242,2.126,2.1288,2.1297,2.1306,2.1333,2.1341,2.1383,2.1378,2.1404,2.1455,2.1472,2.1487,2.1542,2.1537,2.1551,2.1575,2.1599,2.1604,2.161,2.1627,2.1633,2.1555,2.1555,2.1555,0,2.1206,2.1254,2.1261,2.1295,2.1313,2.131,2.1346,2.1363,2.1398,2.1409,2.1399,2.146,2.1477,2.1526,2.1539,2.1552,2.156,2.1547,2.1603,2.1608,2.1613,2.163,2.1636,2.1556,2.1556,2.1556,2.1556,0,2.1276,2.1309,2.1335,2.1369,2.139,2.1425,2.1436,2.1456,2.1457,2.1467,2.1507,2.1527,2.1558,2.157,2.1571,2.1618,2.1611,2.1602,2.1583,2.1621,2.1637,2.1643,2.1558,2.1558,2.1558,2.1557,0,0,2.1339,2.1375,2.1384,2.1398,2.1427,2.1452,2.1486,2.1516,2.1532,2.1555,2.1582,2.1624,2.1615,2.1632,2.1635,2.1656,2.1695,2.1644,2.1645,2.1651,2.1744,2.1749,2.1757,2.1692,2.1693,2.1694,2.1741,0,2.1392,2.1452,2.1458,2.1511,2.154,2.1536,2.1565,2.1584,2.1594,2.1618,2.1628,2.1657,2.1644,2.1654,2.1675,2.1686,2.1713,2.1683,2.1715,2.1716,2.1707,2.1765,2.1772,2.1815,2.1747,2.1748,2.1749,0,2.1461,2.1486,2.1542,2.1564,2.1577,2.1603,2.1629,2.1654,2.1675,2.168,2.1698,2.1698,2.173,2.171,2.1753,2.1732,2.1745,2.1752,2.1754,2.1757,2.1734,2.1767,2.1829,2.1835,2.1759,2.1758,2.1758,0,2.1499,2.1547,2.1585,2.1598,2.1626,2.1643,2.1655,2.1675,2.1692,2.1715,2.1725,2.1752,2.1766,2.1785,2.1791,2.1776,2.1833,2.1814,2.1836,2.1836,2.1848,2.1847,2.1911,2.1859,2.1859,2.1859,2.1859,0,2.1556,2.1589,2.1602,2.1626,2.1663,2.1669,2.1704,2.1716,2.1733,2.1757,2.1755,2.1778,2.1785,2.1808,2.1813,2.1846,2.1853,2.1857,2.1857,2.1856,2.1855,2.1864,2.1861,2.1861,2.186,2.186,2.186,0,2.1604,2.1614,2.1656,2.1678,2.1684,2.171,2.1728,2.175,2.1758,2.1789,2.1796,2.1809,2.1836,2.1844,2.1877,2.188,2.1918,2.1917,2.1911,2.1911,2.1932,2.1929,2.2003,2.2012,2.1955,2.1956,2.1956,0,2.1639,2.1665,2.1689,2.1705,2.1718,2.1745,2.1761,2.1768,2.1785,2.1809,2.1828,2.1854,2.1876,2.1919,2.193,2.1954,2.1952,2.1977,2.1956,2.1953,2.195,2.1948,2.1949,2.198,2.1981,2.1981,2.1982,0,2.1699,2.1702,2.1727,2.1753,2.1773,2.1793,2.1813,2.1826,2.1835,2.1854,2.1881,2.1898,2.1931,2.1956,2.198,2.1991,2.1987,2.1988,2.1994,2.1992,2.1987,2.1988,2.192,2.1986,2.1986,2.1985,2.1985,2.1985,2.1741,2.1762,2.1782,2.1809,2.1824,2.1842,2.1862,2.1873,2.1896,2.1923,2.1925,2.1954,2.1972,2.2004,2.2016,2.2038,2.203,2.204,2.2042,2.2044,2.2044,2.1985,2.2042,2.2042,2.2042,2.2042,2.2042,0,2.1799,2.1811,2.1836,2.1863,2.1883,2.1878,2.1899,2.1916,2.1941,2.1959,2.198,2.201,2.2034,2.2047,2.207,2.2085,2.2084,2.2091,2.2089,2.2091,2.2051,2.2042,2.2092,2.2092,2.2092,2.2092,2.2092,2.2092,2.1832,2.1867,2.1872,2.1914,2.1925,2.1954,2.1966,2.1982,2.1995,2.2029,2.2049,2.2057,2.2072,2.2096,2.2118,2.212,2.2128,2.2136,2.2138,2.21,2.2094,2.209,2.2081,2.2138,2.2138,2.2176,2.2177,2.2177]}]]